Victoria, British Columbia

8:45 PM PDT on July 27, 2017 (GMT -0700)
Victoria International

Weather History for CYYJ - February, 2014

Change the Weather History Date:

Monday, February 24, 2014

  Actual Average Record
Temperature  
Mean Temperature 32 °F -  
Max Temperature 34 °F 49 °F 53 °F (2005)
Min Temperature 31 °F 35 °F 24 °F (2006)
Degree Days  
Heating Degree Days 32    
Moisture  
Dew Point 32 °F    
Average Humidity 94    
Maximum Humidity 100    
Minimum Humidity 87    
Precipitation  
Precipitation 0.31 in 0.10 in - ()
Sea Level Pressure  
Sea Level Pressure 30.14 in    
Wind  
Wind Speed 5 mph ()    
Max Wind Speed 10 mph    
Max Gust Speed 18 mph    
Visibility 2.1 miles    
Events Rain , Snow    
Averages and records for this station are not official NWS values.
T = Trace of Precipitation, MM = Missing Value Source: Averaged Metar Reports

Daily Weather History Graph

Daily Weather History Graph

Search for Another Location

Airport or City:

Trip Planner

Search our weather history database for the weather conditions in past years. The results will help you decide how hot, cold, wet, or windy it might be!

Date:

Astronomy

Feb. 24, 2014 Rise Set
Actual Time 7:04 AM PST 5:49 PM PST
Civil Twilight 6:33 AM PST 6:21 PM PST
Nautical Twilight 5:56 AM PST 6:58 PM PST
Astronomical Twilight 5:20 AM PST 7:34 PM PST
Moon 3:24 AM PST (2/24) 12:41 PM PST (2/24)
Length of Visible Light 11h 48m
Length of Day
10h 44m
Waning Crescent, 27% of the Moon is Illuminated
Feb 24
Waning Crescent
Mar 1
New
Mar 8
First Quarter
Mar 16
Full
Mar 23
Last Quarter

Hourly Weather History & Observations

Time (PST) Temp. Windchill Dew Point Humidity Pressure Visibility Wind Dir Wind Speed Gust Speed Precip Events Conditions
12:00 AM 33.8 °F 30.8 °F 30.2 °F 87% 30.13 in 2.0 mi NNE 3.5 mph - N/A Snow Light Snow
1:00 AM 33.8 °F 26.4 °F 30.2 °F 87% 30.13 in 1.0 mi NE 9.2 mph - N/A Snow Light Snow
1:38 AM 32.0 °F 23.6 °F 28.4 °F 87% 30.14 in 2.0 mi NE 10.4 mph 18.4 mph N/A Snow Light Snow
2:00 AM 32.0 °F 27.5 °F 30.2 °F 93% 30.14 in 2.0 mi North 4.6 mph - N/A Snow Light Snow
2:32 AM 32.0 °F 28.7 °F 30.2 °F 93% 30.13 in 1.0 mi North 3.5 mph - N/A Snow Light Snow
3:00 AM 32.0 °F 26.4 °F 30.2 °F 93% 30.13 in 1.0 mi NE 5.8 mph - N/A Snow Light Snow
4:00 AM 31 °F - 31 °F 99% 30.14 in 1 mi NW 2.3 mph - - Snow Light Snow
4:00 AM 32.0 °F 28.7 °F 30.2 °F 93% 30.13 in 1.0 mi NW 3.5 mph - N/A Snow Light Snow
5:00 AM 32.0 °F 28.7 °F 30.2 °F 93% 30.13 in 1.0 mi NW 3.5 mph - N/A Snow Light Snow
6:00 AM 32.0 °F 27.5 °F 32.0 °F 100% 30.13 in 1.0 mi NNE 4.6 mph - N/A Snow Light Snow
6:35 AM 32.0 °F 23.6 °F 30.2 °F 93% 30.13 in 1.0 mi North 10.4 mph - N/A Snow Light Snow
7:00 AM 32.0 °F 26.4 °F 30.2 °F 93% 30.13 in 1.0 mi North 5.8 mph - N/A Snow Light Snow
8:00 AM 32.0 °F 25.6 °F 30.2 °F 93% 30.13 in 1.0 mi North 6.9 mph - N/A Snow Light Snow
8:22 AM 32.0 °F 27.5 °F 32.0 °F 100% 30.13 in 1.0 mi North 4.6 mph - N/A Snow Light Snow
9:00 AM 33.8 °F 26.4 °F 32.0 °F 93% 30.14 in 1.0 mi North 9.2 mph - N/A Snow Light Snow
10:00 AM 33 °F - 32 °F 94% 30.13 in 1 mi North 5.8 mph - - Snow Light Snow
10:00 AM 33.8 °F 28.6 °F 32.0 °F 93% 30.13 in 1.0 mi North 5.8 mph - N/A Snow Light Snow
10:42 AM 33.8 °F 28.6 °F 32.0 °F 93% 30.13 in 1.0 mi North 5.8 mph - N/A Snow Light Snow
11:00 AM 33.8 °F 27.7 °F 32.0 °F 93% 30.13 in 1.0 mi North 6.9 mph - N/A Snow Light Snow
12:00 PM 33.8 °F 27.0 °F 32.0 °F 93% 30.13 in 1.0 mi North 8.1 mph - N/A Snow Light Snow
12:10 PM 33.8 °F 27.0 °F 32.0 °F 93% 30.13 in 0.8 mi North 8.1 mph - N/A Snow Light Snow
12:17 PM 33.8 °F 27.7 °F 32.0 °F 93% 30.12 in 1.0 mi North 6.9 mph - N/A Snow Light Snow
1:00 PM 33.8 °F 28.6 °F 32.0 °F 93% 30.12 in 1.0 mi NNW 5.8 mph - N/A Snow Light Snow
2:00 PM 33.8 °F - 32.0 °F 93% 30.11 in 1.0 mi North 2.3 mph - N/A Snow Light Snow
3:00 PM 32.0 °F 26.4 °F 32.0 °F 100% 30.13 in 1.0 mi North 5.8 mph - N/A Snow Light Snow
4:00 PM 33 °F - 32 °F 96% 30.14 in 1 mi NNW 4.6 mph - - Snow Light Snow
4:00 PM 32.0 °F 27.5 °F 32.0 °F 100% 30.14 in 1.0 mi NNW 4.6 mph - N/A Snow Light Snow
4:39 PM 33.8 °F 27.7 °F 32.0 °F 93% 30.14 in 1.0 mi North 6.9 mph - N/A Snow Light Snow
5:00 PM 33.8 °F 28.6 °F 32.0 °F 93% 30.14 in 2.0 mi NNW 5.8 mph - N/A Snow Light Snow
5:45 PM 33.8 °F 27.7 °F 32.0 °F 93% 30.14 in 5.0 mi NW 6.9 mph - N/A Rain , Snow Light Rain
6:00 PM 33.8 °F 28.6 °F 32.0 °F 93% 30.15 in 5.0 mi NNW 5.8 mph - N/A Rain , Snow Light Rain
7:00 PM 33.8 °F 28.6 °F 32.0 °F 93% 30.15 in 5.0 mi NW 5.8 mph - N/A Rain , Snow Light Rain
7:39 PM 33.8 °F 29.6 °F 32.0 °F 93% 30.16 in 5.0 mi NW 4.6 mph - N/A Rain Light Rain
8:00 PM 33.8 °F 28.6 °F 32.0 °F 93% 30.16 in 5.0 mi WNW 5.8 mph - N/A Rain Light Rain
8:26 PM 33.8 °F 28.6 °F 32.0 °F 93% 30.16 in 5.0 mi NW 5.8 mph - N/A Rain Light Rain
9:00 PM 33.8 °F 29.6 °F 32.0 °F 93% 30.17 in 5.0 mi WNW 4.6 mph - N/A Rain Light Rain
10:00 PM 34 °F - 33 °F 94% 30.18 in 5 mi NW 5.8 mph - - Rain Light Rain
10:00 PM 33.8 °F 28.6 °F 32.0 °F 93% 30.18 in 5.0 mi NW 5.8 mph - N/A Rain Light Rain
11:00 PM 33.8 °F 27.7 °F 33.8 °F 100% 30.19 in 3.0 mi WNW 6.9 mph - N/A   Overcast
11:17 PM 33.8 °F 27.7 °F 33.8 °F 100% 30.19 in 3.0 mi WNW 6.9 mph - N/A Rain Light Rain